Orbital Elements at Epoch 2459200.5 (2020-Dec-17.0) TDB
Reference: JPL 21 (heliocentric ecliptic J2000)
Element | Value | Uncertainty (1-sigma) | Units |
e | .1074793791524284 | 2.8649e-08 | |
a | 2.346327541231854 | 8.7906e-09 | au |
q | 2.094145713812011 | 6.8602e-08 | au |
i | 5.659408082709038 | 3.5405e-06 | deg |
node | 167.3602671898175 | 3.2004e-05 | deg |
peri | 231.635255091295 | 3.6073e-05 | deg |
M | 315.1237554509967 | 1.7144e-05 | deg |
tp | 2459364.142230216379 (2021-May-29.64223022) | 6.2782e-05 | TDB |
period | 1312.748057907727 3.59 | 7.3774e-06 2.02e-08 | d yr |
n | .2742338850409515 | 1.5411e-09 | deg/d |
Q | 2.598509368651698 | 9.7354e-09 | au |
|
| | Orbit Determination Parameters
Additional Information
|